Simultaneous Nadir Overpasses (SNOs) Predictions

Prediction of SNOs between AQUA and NOAA-19 Satellite Orbit:

Table of predicted SNOs for the next 14.0 days since TLE Epoch: 5/21/2021
Index Date (AQUA) Time (AQUA) Lat,Lon (AQUA) SZA (AQUA ) Date (NOAA-19) Time (NOAA-19) Lat,Lon (NOAA-19) SZA (NOAA-19 ) Distance(km) Time Diff (sec)
1 05/22/2021 11:12:51 -78.82, 169.07 120.84 05/22/2021 11:11:38 -78.86, 169.06 120.78 3.70 73
2 05/22/2021 12:02:19 78.88, -23.60 59.23 05/22/2021 12:02:42 78.89, -23.50 59.22 2.37 23
3 05/24/2021 17:36:02 -78.86, 73.10 121.21 05/24/2021 17:35:48 -78.87, 73.19 121.21 2.40 14
4 05/26/2021 23:09:45 78.83, 169.79 58.38 05/26/2021 23:09:04 78.83, 169.69 58.40 2.13 41
5 05/26/2021 23:59:12 -78.85, -22.67 121.61 05/26/2021 23:59:58 -78.88, -22.70 121.60 2.82 46
6 05/29/2021 04:43:24 -78.65, -92.61 122.23 05/29/2021 04:42:16 -78.60, -95.16 122.03 56.25 68
7 05/29/2021 05:32:55 78.84, 73.99 58.02 05/29/2021 05:33:13 78.87, 74.04 58.05 4.22 18
8 05/31/2021 11:06:38 -78.82, 170.67 122.33 05/31/2021 11:06:19 -78.84, 170.65 122.29 3.09 19
9 05/31/2021 11:56:10 79.05, -23.03 57.99 05/31/2021 11:57:17 79.07, -20.34 57.78 56.82 67
10 06/02/2021 16:40:21 78.81, -92.74 57.39 06/02/2021 16:39:34 78.83, -92.69 57.42 2.08 47



Historial Predications of SNOs between AQUA and NOAA-19
